AFR12HN LEBL-LFPG

Flight info

Callsign AFR12HN
Flight time N/A
Altitude 38000
Route OLOXO DCT OKABI DCT TOU DCT POI DCT PEPAX UT182 KEPER
Aircraft A321/M-SDE2E3FGIJ1RWY/HB1

Departure

Time N/A
Airport Josep Tarradellas Barcelona-El Prat Airport (LEBL)

Arrival

Time 2026-05-06 13:34
Airport Charles de Gaulle International Airport (LFPG)
Time Latitude Longitude Altitude Speed Heading
2026-05-06 12:17 41.52040 1.66390 15264 ft 399 kts 336°
2026-05-06 12:17 41.54724 1.65360 15676 ft 405 kts 346°
2026-05-06 12:17 41.57532 1.64879 16125 ft 408 kts 351°
2026-05-06 12:18 41.60366 1.64452 16559 ft 411 kts 351°
2026-05-06 12:18 41.63214 1.64010 16960 ft 413 kts 350°
2026-05-06 12:18 41.66080 1.63560 17373 ft 417 kts 350°
2026-05-06 12:18 41.68968 1.63105 17790 ft 419 kts 350°
2026-05-06 12:19 41.71879 1.62646 18200 ft 423 kts 350°
2026-05-06 12:19 41.74807 1.62181 18586 ft 426 kts 349°
2026-05-06 12:19 41.77762 1.61710 18966 ft 428 kts 350°
2026-05-06 12:19 41.80724 1.61240 19430 ft 429 kts 349°
2026-05-06 12:20 41.83701 1.60770 19812 ft 432 kts 349°
2026-05-06 12:20 41.86702 1.60298 20182 ft 436 kts 349°
2026-05-06 12:20 41.89728 1.59827 20544 ft 439 kts 349°
2026-05-06 12:20 41.92771 1.59352 20901 ft 442 kts 348°
2026-05-06 12:21 41.95841 1.58867 21250 ft 446 kts 348°
2026-05-06 12:21 41.98930 1.58374 21603 ft 448 kts 348°
2026-05-06 12:21 42.02040 1.57875 21959 ft 451 kts 348°
2026-05-06 12:21 42.05171 1.57378 22305 ft 455 kts 348°
2026-05-06 12:22 42.08325 1.56880 22630 ft 459 kts 347°
2026-05-06 12:22 42.11510 1.56379 22919 ft 462 kts 347°
2026-05-06 12:22 42.14708 1.55874 23272 ft 464 kts 347°
2026-05-06 12:22 42.17928 1.55367 23566 ft 468 kts 347°
2026-05-06 12:23 42.21169 1.54856 23915 ft 469 kts 348°
2026-05-06 12:23 42.24407 1.54343 24236 ft 469 kts 347°
2026-05-06 12:23 42.27655 1.53822 24552 ft 471 kts 347°
2026-05-06 12:23 42.30912 1.53298 24840 ft 473 kts 347°
2026-05-06 12:24 42.34188 1.52774 25121 ft 475 kts 347°
2026-05-06 12:24 42.37465 1.52253 25466 ft 473 kts 349°
2026-05-06 12:24 42.40732 1.51736 25782 ft 473 kts 349°
2026-05-06 12:24 42.43997 1.51214 26057 ft 473 kts 349°
2026-05-06 12:25 42.47271 1.50681 26276 ft 474 kts 349°
2026-05-06 12:25 42.50552 1.50141 26487 ft 475 kts 348°
2026-05-06 12:25 42.53832 1.49605 26714 ft 476 kts 348°
2026-05-06 12:25 42.57122 1.49075 26982 ft 475 kts 348°
2026-05-06 12:26 42.60407 1.48547 27259 ft 475 kts 348°
2026-05-06 12:26 42.63691 1.48018 27528 ft 476 kts 348°
2026-05-06 12:26 42.66981 1.47490 27754 ft 476 kts 348°
2026-05-06 12:26 42.70272 1.46965 28028 ft 477 kts 348°
2026-05-06 12:27 42.73567 1.46440 28323 ft 477 kts 348°
2026-05-06 12:27 42.76866 1.45914 28574 ft 477 kts 348°
2026-05-06 12:27 42.80157 1.45392 28794 ft 476 kts 348°
2026-05-06 12:27 42.83452 1.44862 29029 ft 476 kts 347°
2026-05-06 12:28 42.86745 1.44327 29198 ft 477 kts 347°
2026-05-06 12:28 42.90042 1.43786 29441 ft 477 kts 347°
2026-05-06 12:28 42.93343 1.43245 29699 ft 478 kts 347°
2026-05-06 12:28 42.96645 1.42704 29967 ft 478 kts 347°
2026-05-06 12:29 42.98829 1.42347 30137 ft 478 kts 347°
2026-05-06 12:29 43.03202 1.41640 30487 ft 476 kts 348°
2026-05-06 12:29 43.06482 1.41113 30754 ft 474 kts 348°
2026-05-06 12:29 43.09758 1.40584 30998 ft 473 kts 347°
2026-05-06 12:30 43.13027 1.40057 31227 ft 473 kts 347°
2026-05-06 12:30 43.16293 1.39527 31459 ft 472 kts 347°
2026-05-06 12:30 43.19555 1.38993 31670 ft 472 kts 347°
2026-05-06 12:30 43.21761 1.38630 31819 ft 472 kts 347°
2026-05-06 12:31 43.25019 1.38096 32088 ft 471 kts 348°
2026-05-06 12:31 43.28276 1.37565 32337 ft 471 kts 348°
2026-05-06 12:31 43.31514 1.37034 32565 ft 470 kts 347°
2026-05-06 12:31 43.34767 1.36497 32793 ft 470 kts 347°
2026-05-06 12:32 43.38016 1.35958 33015 ft 470 kts 347°
2026-05-06 12:32 43.41262 1.35418 33236 ft 470 kts 347°
2026-05-06 12:32 43.44483 1.34885 33492 ft 470 kts 348°
2026-05-06 12:32 43.47726 1.34348 33720 ft 470 kts 348°
2026-05-06 12:33 43.50969 1.33812 33925 ft 469 kts 348°
2026-05-06 12:33 43.54215 1.33276 34110 ft 470 kts 348°
2026-05-06 12:33 43.57458 1.32736 34279 ft 469 kts 348°
2026-05-06 12:33 43.60701 1.32194 34464 ft 469 kts 348°
2026-05-06 12:34 43.63942 1.31655 34656 ft 469 kts 348°
2026-05-06 12:34 43.67182 1.31114 34835 ft 468 kts 347°
2026-05-06 12:34 43.70354 1.30233 34996 ft 464 kts 342°
2026-05-06 12:34 43.73495 1.29188 35157 ft 464 kts 342°
2026-05-06 12:35 43.76638 1.28143 35314 ft 464 kts 342°
2026-05-06 12:35 43.79777 1.27102 35477 ft 464 kts 342°
2026-05-06 12:35 43.82916 1.26063 35645 ft 464 kts 342°
2026-05-06 12:35 43.86060 1.25021 35785 ft 464 kts 342°
2026-05-06 12:36 43.89204 1.23977 35934 ft 464 kts 342°
2026-05-06 12:36 43.92341 1.22932 36079 ft 464 kts 342°
2026-05-06 12:36 43.95451 1.21892 36234 ft 465 kts 342°
2026-05-06 12:36 43.98594 1.20835 36431 ft 465 kts 342°
2026-05-06 12:37 44.01736 1.19775 36626 ft 464 kts 342°
2026-05-06 12:37 44.04876 1.18718 36771 ft 464 kts 343°
2026-05-06 12:37 44.07976 1.17679 36897 ft 464 kts 343°
2026-05-06 12:37 44.11115 1.16626 37021 ft 464 kts 343°
2026-05-06 12:38 44.14254 1.15572 37163 ft 464 kts 343°
2026-05-06 12:38 44.17393 1.14515 37299 ft 464 kts 343°
2026-05-06 12:38 44.20528 1.13459 37454 ft 463 kts 343°
2026-05-06 12:38 44.23658 1.12405 37622 ft 463 kts 343°
2026-05-06 12:39 44.26786 1.11349 37787 ft 462 kts 343°
2026-05-06 12:39 44.29909 1.10291 37926 ft 462 kts 343°
2026-05-06 12:39 44.36166 1.08163 37945 ft 463 kts 343°
2026-05-06 12:40 44.42423 1.06042 37948 ft 463 kts 343°
2026-05-06 12:40 44.48683 1.03923 37934 ft 463 kts 343°
2026-05-06 12:41 44.54938 1.01789 37931 ft 463 kts 343°
2026-05-06 12:41 44.61195 0.99646 37945 ft 464 kts 343°
2026-05-06 12:42 44.67468 0.97498 37949 ft 464 kts 343°
2026-05-06 12:42 44.73738 0.95349 37949 ft 464 kts 343°
2026-05-06 12:43 44.80018 0.93189 37946 ft 464 kts 343°
2026-05-06 12:43 44.86293 0.91017 37942 ft 465 kts 343°
2026-05-06 12:44 44.92578 0.88839 37945 ft 465 kts 343°
2026-05-06 12:44 44.98873 0.86667 37946 ft 466 kts 343°
2026-05-06 12:45 45.05125 0.84506 37952 ft 466 kts 343°
2026-05-06 12:46 45.14604 0.81198 37948 ft 466 kts 343°
2026-05-06 12:46 45.20904 0.78999 37958 ft 466 kts 344°
2026-05-06 12:47 45.27163 0.76812 37954 ft 466 kts 344°
2026-05-06 12:47 45.33461 0.74603 37951 ft 466 kts 344°
2026-05-06 12:48 45.39750 0.72396 37954 ft 466 kts 344°
2026-05-06 12:48 45.46039 0.70180 37943 ft 465 kts 344°
2026-05-06 12:49 45.52314 0.67959 37939 ft 465 kts 344°
2026-05-06 12:49 45.58588 0.65740 37947 ft 465 kts 344°
2026-05-06 12:50 45.64864 0.63521 37946 ft 465 kts 344°
2026-05-06 12:50 45.71138 0.61291 37944 ft 465 kts 344°
2026-05-06 12:51 45.77412 0.59050 37945 ft 464 kts 344°
2026-05-06 12:51 45.83680 0.56807 37943 ft 465 kts 344°
2026-05-06 12:52 45.89956 0.54566 37939 ft 465 kts 344°
2026-05-06 12:52 45.96230 0.52320 37937 ft 465 kts 344°
2026-05-06 12:53 46.02499 0.50056 37941 ft 464 kts 344°
2026-05-06 12:53 46.08772 0.47797 37938 ft 464 kts 344°
2026-05-06 12:54 46.15037 0.45535 37937 ft 464 kts 344°
2026-05-06 12:54 46.21303 0.43262 37946 ft 465 kts 344°
2026-05-06 12:55 46.27572 0.40976 37933 ft 464 kts 344°
2026-05-06 12:55 46.33824 0.38703 37937 ft 463 kts 344°
2026-05-06 12:56 46.40070 0.36430 37946 ft 463 kts 344°
2026-05-06 12:56 46.46303 0.34148 37947 ft 462 kts 344°
2026-05-06 12:57 46.52526 0.31865 37944 ft 461 kts 344°
2026-05-06 12:57 46.58874 0.30579 37949 ft 464 kts
2026-05-06 12:58 46.65258 0.32002 37947 ft 466 kts 10°
2026-05-06 12:58 46.71601 0.33953 37942 ft 465 kts 11°
2026-05-06 12:59 46.77938 0.35900 37943 ft 465 kts 10°
2026-05-06 12:59 46.84274 0.37854 37946 ft 465 kts 11°
2026-05-06 13:00 46.90617 0.39818 37947 ft 466 kts 11°
2026-05-06 13:00 46.96964 0.41781 37950 ft 466 kts 11°
2026-05-06 13:01 47.03314 0.43747 37945 ft 467 kts 11°
2026-05-06 13:01 47.09737 0.44693 37957 ft 464 kts 355°
2026-05-06 13:02 47.16061 0.43317 37951 ft 463 kts 349°
2026-05-06 13:02 47.22456 0.41749 37973 ft 463 kts 349°
2026-05-06 13:03 47.28773 0.40224 37974 ft 463 kts 349°
2026-05-06 13:03 47.35131 0.38684 37975 ft 463 kts 349°
2026-05-06 13:04 47.41485 0.37121 37981 ft 463 kts 348°
2026-05-06 13:04 47.44658 0.36331 37389 ft 460 kts 349°
2026-05-06 13:04 47.47790 0.35556 36097 ft 454 kts 349°
2026-05-06 13:04 47.50887 0.34792 34857 ft 448 kts 350°
2026-05-06 13:05 47.53941 0.34034 33545 ft 443 kts 351°
2026-05-06 13:05 47.56968 0.33281 32083 ft 438 kts 351°
2026-05-06 13:05 47.59915 0.32550 31195 ft 422 kts 351°
2026-05-06 13:05 47.62794 0.31838 30295 ft 421 kts 351°
2026-05-06 13:06 47.65692 0.31118 29564 ft 419 kts 351°
2026-05-06 13:06 47.68511 0.30414 29023 ft 413 kts 351°
2026-05-06 13:06 47.71328 0.29708 28360 ft 406 kts 351°
2026-05-06 13:06 47.74066 0.29055 27242 ft 398 kts 354°
2026-05-06 13:07 47.76808 0.28894 26116 ft 391 kts
2026-05-06 13:07 47.79488 0.29330 24961 ft 385 kts 11°
2026-05-06 13:07 47.82064 0.30314 23771 ft 380 kts 18°
2026-05-06 13:07 47.84487 0.31844 23061 ft 377 kts 26°
2026-05-06 13:08 47.86749 0.33843 22786 ft 380 kts 33°
2026-05-06 13:08 47.88915 0.36096 22512 ft 379 kts 34°
2026-05-06 13:08 47.91074 0.38346 22238 ft 378 kts 34°
2026-05-06 13:08 47.93227 0.40587 21972 ft 377 kts 33°
2026-05-06 13:09 47.95374 0.42823 21714 ft 376 kts 34°
2026-05-06 13:09 47.97510 0.45056 21449 ft 374 kts 34°
2026-05-06 13:09 47.99633 0.47283 21186 ft 373 kts 34°
2026-05-06 13:09 48.01755 0.49513 20944 ft 372 kts 34°
2026-05-06 13:10 48.03874 0.51743 20763 ft 373 kts 34°
2026-05-06 13:10 48.05992 0.53972 20474 ft 372 kts 34°
2026-05-06 13:10 48.08109 0.56205 20186 ft 371 kts 34°
2026-05-06 13:10 48.10218 0.58432 19897 ft 371 kts 34°
2026-05-06 13:11 48.12324 0.60657 19607 ft 371 kts 34°
2026-05-06 13:11 48.14400 0.62854 19318 ft 370 kts 34°
2026-05-06 13:11 48.16500 0.65081 19030 ft 370 kts 34°
2026-05-06 13:11 48.18625 0.67339 18740 ft 370 kts 35°
2026-05-06 13:12 48.20722 0.69568 18438 ft 369 kts 34°
2026-05-06 13:12 48.22785 0.71761 18161 ft 368 kts 34°
2026-05-06 13:12 48.24865 0.73973 17863 ft 365 kts 34°
2026-05-06 13:12 48.26928 0.76163 17576 ft 362 kts 34°
2026-05-06 13:13 48.28980 0.78342 17295 ft 360 kts 34°
2026-05-06 13:13 48.31016 0.80507 17016 ft 357 kts 34°
2026-05-06 13:13 48.33010 0.82714 16738 ft 356 kts 39°
2026-05-06 13:13 48.34731 0.85365 16464 ft 355 kts 51°
2026-05-06 13:14 48.36082 0.88471 16180 ft 356 kts 62°
2026-05-06 13:14 48.37217 0.91783 15905 ft 357 kts 62°
2026-05-06 13:14 48.38358 0.95090 15640 ft 356 kts 62°
2026-05-06 13:14 48.39498 0.98381 15351 ft 353 kts 62°
2026-05-06 13:15 48.40635 1.01656 15078 ft 352 kts 60°
2026-05-06 13:15 48.41402 1.03860 14891 ft 351 kts 60°
2026-05-06 13:15 48.42514 1.07065 14554 ft 349 kts 61°
2026-05-06 13:15 48.43633 1.10294 14236 ft 345 kts 61°
2026-05-06 13:16 48.44730 1.13477 13905 ft 339 kts 61°
2026-05-06 13:16 48.45789 1.16576 13765 ft 325 kts 61°
2026-05-06 13:16 48.46803 1.19551 13375 ft 309 kts 60°
2026-05-06 13:16 48.47759 1.22347 12947 ft 302 kts 62°
2026-05-06 13:17 48.48729 1.25188 12671 ft 301 kts 60°
2026-05-06 13:17 48.49684 1.27989 12401 ft 300 kts 60°
2026-05-06 13:17 48.50636 1.30781 12124 ft 300 kts 61°
2026-05-06 13:17 48.51594 1.33586 11851 ft 300 kts 61°
2026-05-06 13:18 48.52553 1.36371 11719 ft 299 kts 61°
2026-05-06 13:18 48.53513 1.39157 11560 ft 299 kts 60°
2026-05-06 13:18 48.54469 1.41936 11407 ft 298 kts 61°
2026-05-06 13:18 48.55421 1.44707 11247 ft 297 kts 61°
2026-05-06 13:19 48.56378 1.47460 11096 ft 295 kts 57°
2026-05-06 13:19 48.57611 1.49902 10939 ft 291 kts 42°
2026-05-06 13:19 48.59188 1.51795 10759 ft 288 kts 29°
2026-05-06 13:19 48.60966 1.53162 10564 ft 286 kts 24°
2026-05-06 13:20 48.62754 1.54476 10377 ft 285 kts 25°
2026-05-06 13:20 48.64535 1.55791 10184 ft 284 kts 24°
2026-05-06 13:20 48.66305 1.57100 9996 ft 282 kts 24°
2026-05-06 13:20 48.68063 1.58400 9809 ft 281 kts 25°
2026-05-06 13:21 48.69821 1.59703 9605 ft 280 kts 25°
2026-05-06 13:21 48.71564 1.60998 9425 ft 278 kts 24°
2026-05-06 13:21 48.73294 1.62313 9252 ft 278 kts 29°
2026-05-06 13:21 48.74829 1.64089 9039 ft 279 kts 43°
2026-05-06 13:22 48.76012 1.66419 8876 ft 281 kts 58°
2026-05-06 13:22 48.76937 1.69024 8694 ft 280 kts 59°
2026-05-06 13:22 48.77862 1.71617 8517 ft 279 kts 59°
2026-05-06 13:22 48.78787 1.74200 8329 ft 278 kts 59°
2026-05-06 13:23 48.79708 1.76769 8155 ft 277 kts 59°
2026-05-06 13:23 48.80627 1.79341 7950 ft 276 kts 59°
2026-05-06 13:23 48.81538 1.81899 7777 ft 275 kts 59°
2026-05-06 13:23 48.82444 1.84451 7604 ft 274 kts 59°
2026-05-06 13:24 48.83335 1.86961 7419 ft 273 kts 59°
2026-05-06 13:24 48.84242 1.89524 7246 ft 272 kts 59°
2026-05-06 13:24 48.85133 1.92049 7065 ft 270 kts 59°
2026-05-06 13:24 48.86020 1.94561 6885 ft 270 kts 58°
2026-05-06 13:25 48.86906 1.97064 6711 ft 269 kts 58°
2026-05-06 13:25 48.87825 1.99476 6533 ft 256 kts 50°
2026-05-06 13:25 48.88973 2.01440 6372 ft 243 kts 42°
2026-05-06 13:25 48.90124 2.03240 6214 ft 232 kts 42°
2026-05-06 13:26 48.91209 2.04943 6063 ft 223 kts 42°
2026-05-06 13:26 48.92289 2.06648 5911 ft 219 kts 42°
2026-05-06 13:26 48.93346 2.08314 5773 ft 219 kts 42°
2026-05-06 13:26 48.94388 2.09953 5631 ft 218 kts 43°
2026-05-06 13:27 48.95453 2.11630 5489 ft 218 kts 43°
2026-05-06 13:27 48.96473 2.13339 5342 ft 219 kts 53°
2026-05-06 13:27 48.97028 2.15510 5258 ft 226 kts 79°
2026-05-06 13:27 48.97161 2.17909 5136 ft 228 kts 82°
2026-05-06 13:28 48.97276 2.20227 5049 ft 215 kts 81°
2026-05-06 13:28 48.97401 2.22473 4806 ft 209 kts 81°
2026-05-06 13:28 48.97525 2.24649 4541 ft 204 kts 81°
2026-05-06 13:28 48.97644 2.26762 4270 ft 196 kts 81°
2026-05-06 13:29 48.97759 2.28796 3995 ft 191 kts 81°
2026-05-06 13:29 48.97870 2.30768 3752 ft 182 kts 81°
2026-05-06 13:29 48.97973 2.32618 3494 ft 168 kts 81°
2026-05-06 13:29 48.98068 2.34304 3281 ft 161 kts 80°
2026-05-06 13:30 48.98163 2.35997 3064 ft 159 kts 80°
2026-05-06 13:30 48.98256 2.37668 2845 ft 158 kts 81°
2026-05-06 13:30 48.98346 2.39298 2632 ft 150 kts 80°
2026-05-06 13:30 48.98432 2.40853 2433 ft 146 kts 79°
2026-05-06 13:31 48.98517 2.42381 2239 ft 144 kts 80°
2026-05-06 13:31 48.98600 2.43890 2041 ft 143 kts 81°
2026-05-06 13:31 48.98684 2.45405 1848 ft 144 kts 82°
2026-05-06 13:31 48.98767 2.46920 1659 ft 143 kts 82°
2026-05-06 13:32 48.98850 2.48433 1456 ft 144 kts 82°
2026-05-06 13:32 48.98934 2.49947 1249 ft 143 kts 83°
2026-05-06 13:32 48.99016 2.51462 1056 ft 145 kts 81°
2026-05-06 13:32 48.99099 2.52992 874 ft 144 kts 81°
2026-05-06 13:33 48.99182 2.54520 622 ft 145 kts 82°
2026-05-06 13:33 48.99263 2.56042 469 ft 144 kts 82°
2026-05-06 13:33 48.99338 2.57543 366 ft 135 kts 82°
2026-05-06 13:33 48.99412 2.58802 359 ft 97 kts 85°
2026-05-06 13:34 48.99452 2.59566 353 ft 48 kts 85°
2026-05-06 13:34 48.99511 2.59903 362 ft 30 kts 54°
2026-05-06 13:34 48.99611 2.59980 357 ft 9 kts
2026-05-06 13:34 48.99670 2.59973 357 ft 9 kts 356°
2026-05-06 13:35 48.99737 2.59966 354 ft 12 kts 356°
2026-05-06 13:35 48.99850 2.59958 357 ft 20 kts 10°
2026-05-06 13:35 48.99960 2.60069 358 ft 15 kts 10°
2026-05-06 13:35 49.00010 2.59979 361 ft 13 kts 266°
2026-05-06 13:36 49.00002 2.59835 360 ft 15 kts 265°
2026-05-06 13:36 49.00013 2.59669 357 ft 17 kts 314°
2026-05-06 13:36 49.00141 2.59632 354 ft 21 kts 355°
2026-05-06 13:36 49.00278 2.59616 354 ft 17 kts 355°
2026-05-06 13:37 49.00416 2.59601 355 ft 22 kts 355°
2026-05-06 13:37 49.00587 2.59578 354 ft 27 kts 355°
2026-05-06 13:37 49.00753 2.59557 354 ft 22 kts 356°
2026-05-06 13:37 49.00905 2.59538 362 ft 22 kts 355°
2026-05-06 13:38 49.01000 2.59419 360 ft 20 kts 271°
2026-05-06 13:38 49.00990 2.59201 355 ft 23 kts 264°
2026-05-06 13:38 49.00959 2.58957 356 ft 24 kts 257°
2026-05-06 13:38 49.00940 2.58712 355 ft 22 kts 265°
2026-05-06 13:39 49.00928 2.58482 357 ft 22 kts 265°
2026-05-06 13:39 49.00917 2.58271 355 ft 16 kts 265°
2026-05-06 13:39 49.00908 2.58098 357 ft 17 kts 265°
2026-05-06 13:39 49.00897 2.57887 355 ft 23 kts 264°
2026-05-06 13:40 49.00837 2.57731 361 ft 15 kts 199°
2026-05-06 13:40 49.00782 2.57693 357 ft 6 kts 210°
2026-05-06 13:40 49.00755 2.57647 357 ft 5 kts 232°
2026-05-06 13:40 49.00738 2.57617 364 ft 0 kts 228°
2026-05-06 13:41 49.00736 2.57612 359 ft 2 kts 229°
2026-05-06 13:41 49.00724 2.57586 357 ft 2 kts 238°
2026-05-06 13:41 49.00712 2.57552 364 ft 5 kts 243°
2026-05-06 13:41 49.00709 2.57542 364 ft 0 kts 243°